Hourly Data Report for April 29, 2018

DRYDEN REGIONAL
ONTARIO
Current Station Operator: NAVCAN

49°49'39.000" N
92°44'39.000" W
412.70 m
6032125
71527
YHD

Download Data

Hourly Data (April 2018)
Hourly Data Report for April 29, 2018
TIME
LST
Temp Definition
°C
Dew Point Definition
°C
Rel Hum Definition
%
Precip. Amount Definition
mm

Wind Dir Definition
10's deg

Wind Spd Definition
km/h
Visibility Definition
km
Stn Press Definition
kPa
Hmdx Definition


Wind Chill Definition


Weather Definition


00:00 3.3 -6.9 47 0.0 20 17 16.1 97.01     LegendNANA
01:00 2.9 -6.3 51 0.0 20 17 16.1 96.99     LegendNANA
02:00 3.0 -5.9 52 0.0 20 21 16.1 96.99     LegendNANA
03:00 2.9 -5.5 54 0.0 20 21 16.1 97.00     LegendNANA
04:00 2.2 -5.7 56 0.0 19 21 16.1 96.98     LegendNANA
05:00 1.8 -5.8 57 0.0 19 21 16.1 96.98     LegendNANA
06:00 2.6 -5.9 54 0.0 19 21 16.1 96.97     LegendNANA
07:00 4.9 -5.2 48 0.0 19 26 16.1 96.94     LegendNANA
08:00 7.6 -4.4 42 0.0 19 22 16.1 96.88     LegendNANA
09:00 9.5 -4.0 38 0.0 19 28 16.1 96.80     LegendNANA
10:00 11.8 -3.8 33 0.0 20 30 16.1 96.69     LegendNANA
11:00 13.7 -3.5 30 0.0 20 30 16.1 96.64     LegendNANA
12:00 15.9 -2.6 28 0.0 17 22 16.1 96.59     LegendNANA
13:00 16.4 -2.5 27 0.0 18 30 16.1 96.48     LegendNANA
14:00 18.0 -2.3 25 0.0 17 30 16.1 96.38     LegendNANA
15:00 18.0 -2.8 24 0.0 17 28 16.1 96.29     LegendNANA
16:00 18.2 -3.3 23 0.0 18 30 16.1 96.23     LegendNANA
17:00 18.3 -3.4 22 0.0 19 32 16.1 96.16     LegendNANA
18:00 17.6 -3.7 23 0.0 18 32 16.1 96.09     LegendNANA
19:00 16.1 -4.0 25 0.0 19 24 16.1 96.08     LegendNANA
20:00 14.5 -4.2 27 0.0 18 22 16.1 96.06     LegendNANA
21:00 13.5 -3.7 30 0.0 19 24 16.1 96.04     LegendNANA
22:00 12.9 -3.5 32 0.0 20 24 16.1 96.04     LegendNANA
23:00 12.2 -3.6 33 0.0 20 21 16.1 96.07     LegendNANA

Notes on Data Quality.

Legend

  • E = Estimated
  • M = Missing
  • NA = Not Available*
  • [empty] = Indicates an unobserved value
Date modified: